Wind_Speed
51 53 47 44 40 38 36 35 33 32 33 37 38 41 43 42 39 30 25 32 30 30 30 27 27 28 25 28 29 29 30 32 32 36 40 40 41 44 47 50 52 52 49 46
57 58 54 51 45 44 40 40 39 37 36 40 43 43 42 47 48 42 34 34 34 32 32 32 30 29 31 32 34 34 36 34 33 33 35 44 47 49 51 53 54 54 51 49
61 63 62 52 49 50 47 44 45 42 42 44 45 44 47 49 53 51 47 42 39 38 36 34 33 34 32 33 35 36 37 39 38 39 38 39 42 47 51 52 53 54 53 49
66 67 61 51 59 54 50 49 49 46 47 47 47 47 48 51 56 56 53 52 49 43 42 40 36 33 38 40 41 41 40 40 42 42 43 45 45 45 44 45 46 47 47 46
71 69 63 61 60 58 54 52 52 51 52 51 51 51 50 54 61 60 57 56 57 54 48 46 41 39 40 44 46 46 45 47 45 45 46 48 50 49 49 50 50 49 48 47
77 75 67 62 66 66 61 51 55 58 54 55 56 54 55 60 63 62 63 60 61 61 58 54 52 49 48 45 49 51 50 50 51 53 51 50 51 52 52 52 53 52 53 54
83 80 71 68 70 69 66 56 62 60 59 58 59 57 60 60 63 64 63 63 62 62 63 61 60 58 56 56 51 52 53 55 54 57 58 58 56 55 54 52 52 54 54 54
86 83 75 73 75 73 70 67 64 62 61 61 60 60 61 63 64 66 67 66 66 65 64 63 64 63 63 62 59 56 55 58 60 56 54 57 56 56 58 58 57 56 57 57
90 86 80 79 78 76 73 69 69 65 65 66 65 65 65 66 68 69 70 68 66 66 65 66 67 69 68 64 65 63 62 60 59 56 54 52 56 58 59 62 60 60 62 61
91 88 85 82 81 79 77 74 74 74 71 71 71 71 71 71 71 70 69 69 70 70 71 72 72 74 73 72 66 67 65 63 59 56 56 54 56 57 58 62 65 62 60 60
92 89 86 85 83 82 79 76 75 76 76 74 73 73 71 71 72 73 74 73 73 74 76 78 79 78 75 72 73 73 70 69 67 64 61 64 63 58 57 60 61 60 61 58
87 86 84 82 82 79 76 75 75 75 73 73 75 75 74 74 75 76 78 77 78 75 77 78 81 79 85 85 83 81 80 80 76 76 74 72 69 68 65 64 66 68 70 68
81 81 81 80 79 77 77 77 76 76 76 76 77 77 77 77 79 79 83 73 82 78 80 85 89 89 90 87 83 86 85 84 84 83 81 80 80 76 74 73 71 72 72 71
76 78 79 79 78 78 78 78 78 78 79 78 78 77 79 78 79 73 86 89 84 90 87 87 88 89 88 89 90 89 91 90 89 90 88 86 83 80 78 77 75 78 79 76
71 72 73 74 74 75 75 75 75 75 76 76 76 76 76 77 78 80 83 84 83 86 87 88 89 91 92 92 91 88 83 77 78 78 78 78 78 77 76 76 76 77 77 80
65 65 66 68 67 67 67 68 70 70 71 71 72 72 73 75 78 79 80 82 85 86 86 83 81 79 78 77 78 78 78 78 79 80 80 80 79 76 73 72 71 70 70 73
58 60 61 62 63 64 65 66 67 67 69 70 71 72 75 78 79 78 74 71 70 71 74 76 77 77 78 79 77 74 73 72 71 69 70 70 67 64 59 57 57 58 60 61
56 58 61 63 64 65 66 66 66 67 67 66 66 63 61 60 62 65 66 68 69 70 71 72 71 69 65 60 56 52 51 51 52 53 52 50 49 47 44 42 42 41 40 41
44 47 49 51 52 53 51 48 46 45 46 49 52 55 57 57 57 56 57 59 59 57 50 44 40 38 36 35 35 35 35 36 37 35 30 30 29 26 25 22 20 20 21 23
37 40 42 42 42 41 43 44 46 47 46 46 46 45 44 44 40 36 35 32 34 35 36 38 38 38 36 36 36 35 33 32 28 22 19 16 15 14 14 16 18 12 8 11
37 39 39 40 39 39 39 40 41 40 33 33 28 27 27 25 28 32 35 37 39 40 42 44 45 45 44 44 44 41 38 34 24 20 17 15 15 18 17 10 6 5 8 16
33 33 34 36 37 35 26 21 22 22 21 24 23 25 25 27 32 36 38 40 42 43 46 49 52 51 51 50 48 46 40 33 26 23 20 18 19 13 8 6 8 10 15 19
30 30 24 20 18 15 17 20 22 23 22 24 25 27 28 31 36 38 42 44 46 50 55 56 54 52 50 48 46 41 36 30 25 23 19 19 17 12 9 10 11 11 16 22
20 22 19 17 14 9 12 15 19 22 24 28 30 32 32 35 37 41 42 45 51 55 48 44 39 37 35 32 28 24 21 20 19 19 19 16 14 14 11 14 12 16 16 21
13 21 22 23 24 28 28 31 27 27 29 31 33 33 34 37 40 40 41 48 51 49 41 31 21 14 12 11 9 7 7 8 11 12 12 11 15 11 13 14 15 17 17 21
11 11 14 15 21 21 22 24 26 30 33 34 34 36 39 40 40 39 40 45 47 39 23 12 5 2 7 7 7 10 11 10 10 9 10 13 13 12 14 13 16 17 18 20
9 14 18 21 25 27 29 32 34 35 37 39 42 43 42 40 39 38 37 38 38 25 8 3 5 9 9 4 4 8 8 8 6 6 6 8 10 13 16 18 20 21 22 24
Wind_Direction
249 253 256 260 265 267 271 275 282 285 287 286 287 291 296 297 299 299 296 296 295 296 298 299 301 302 301 300 295 288 281 276 274 274 273 270 267 264 266 270 273 276 281 284
249 252 254 257 262 267 268 270 273 277 280 275 277 284 287 290 292 296 296 294 293 292 294 295 296 297 298 301 301 298 295 288 273 264 267 264 266 267 263 264 269 276 281 285
247 250 253 256 263 262 263 266 268 272 273 276 277 277 279 285 287 291 295 294 294 295 293 293 296 298 295 291 288 287 290 291 290 284 278 274 267 268 269 270 274 277 279 282
244 248 254 256 257 260 262 264 265 269 270 271 273 275 278 281 284 287 291 295 295 295 294 293 291 293 295 293 292 289 283 284 289 289 286 283 281 280 278 277 275 274 274 273
246 249 250 253 260 262 263 264 266 266 268 269 270 271 274 276 278 285 288 290 293 294 294 294 294 292 291 291 291 289 290 290 286 284 284 287 285 286 286 286 284 283 283 280
247 248 249 253 256 261 263 265 266 264 266 269 271 274 272 273 279 282 285 288 291 293 295 299 299 297 295 293 290 290 289 291 292 293 287 279 278 273 273 277 279 280 280 280
246 248 249 250 255 258 262 261 262 267 268 269 271 272 272 275 277 280 281 282 284 285 290 295 295 294 292 290 288 287 288 288 290 292 295 292 287 286 283 278 280 279 277 276
246 249 250 251 254 256 258 259 261 264 268 270 270 269 271 273 274 275 277 280 282 285 288 289 289 290 289 288 287 285 286 287 289 285 288 288 282 284 285 283 280 278 277 275
246 249 249 251 254 256 259 261 263 263 264 265 266 268 269 271 273 275 279 282 285 286 287 287 286 286 286 287 287 287 284 283 286 282 283 282 281 277 279 276 275 277 279 278
245 248 249 251 254 257 260 262 264 265 264 266 267 269 272 273 277 280 282 283 284 285 284 283 283 284 284 287 284 286 286 284 285 286 285 283 278 277 274 272 270 270 272 275
245 246 249 251 254 257 260 263 265 268 272 272 273 274 276 276 278 279 279 279 280 282 283 283 283 283 286 291 292 291 291 293 292 288 288 284 280 277 270 265 265 266 267 268
245 248 250 253 256 258 261 263 265 266 266 270 274 275 275 277 278 279 280 281 283 285 288 288 291 292 292 291 291 293 293 291 290 288 285 283 280 278 274 267 267 267 268 268
245 248 251 253 254 256 257 259 261 263 264 265 266 269 273 276 278 282 283 279 286 285 284 283 284 281 285 288 287 286 288 288 288 286 286 284 282 280 276 275 272 271 271 271
245 248 249 252 254 257 260 261 263 264 266 268 270 272 274 275 276 276 273 284 283 282 283 282 284 286 288 288 287 288 287 286 284 283 283 282 280 279 276 274 270 272 271 269
247 250 252 255 256 258 261 264 266 267 269 270 272 273 273 273 273 273 275 278 280 281 283 284 285 285 287 287 288 288 287 287 285 284 283 282 281 279 277 276 273 268 267 270
250 252 255 257 259 262 264 265 266 267 269 270 271 273 274 275 276 277 279 280 283 284 285 285 284 285 285 285 285 285 283 281 281 282 281 280 280 280 279 277 276 273 271 269
255 256 257 259 260 260 262 264 266 268 269 272 273 275 276 278 281 282 282 281 281 282 282 283 283 284 283 284 284 284 284 283 282 283 283 281 280 281 281 281 279 276 273 274
254 257 258 260 261 263 264 265 268 270 272 274 275 277 278 279 281 282 282 282 283 284 285 286 286 286 287 288 287 286 287 286 285 285 287 290 288 285 284 284 281 281 280 276
246 249 253 256 259 263 266 268 269 272 272 273 276 278 279 280 281 283 284 285 285 286 286 287 291 295 300 303 301 298 295 294 294 298 298 292 291 290 285 286 284 279 278 281
248 250 253 256 259 263 267 269 270 271 273 275 277 279 281 281 282 283 285 289 293 298 303 303 302 302 303 303 301 303 302 300 305 304 296 293 292 294 288 287 289 290 290 289
257 259 263 266 267 266 265 267 268 269 270 269 274 268 275 282 290 293 295 298 300 301 301 301 300 299 296 294 293 290 286 286 293 282 282 288 291 293 292 266 230 260 294 301
265 268 267 265 263 265 255 243 249 241 251 260 265 269 281 291 295 296 299 302 303 299 297 297 293 290 286 284 284 282 283 283 279 275 278 284 290 280 222 230 246 268 291 308
267 261 251 231 217 221 234 236 238 245 261 267 273 279 286 291 297 301 304 307 304 303 302 295 289 286 285 282 281 281 278 275 270 269 271 276 283 220 220 241 251 279 301 311
200 190 196 204 224 224 249 262 265 267 268 271 277 282 288 293 298 303 306 305 306 310 307 301 294 287 283 279 278 279 273 266 256 251 253 266 222 210 248 244 266 285 301 317
215 226 228 224 244 265 271 277 272 271 281 283 284 288 292 295 299 303 305 307 317 328 328 323 312 294 277 266 242 222 213 200 213 226 222 214 212 236 249 246 268 284 299 312
250 263 271 258 256 268 276 286 289 289 288 288 289 288 288 291 294 298 303 314 324 330 327 339 353 112 132 145 156 153 155 167 180 192 207 214 221 241 244 253 274 289 294 304
269 277 280 284 290 290 286 288 290 290 290 290 288 287 286 286 287 291 301 312 315 321 337 34 95 109 109 122 190 185 182 184 187 210 228 238 239 246 251 264 272 278 285 293
Height
10957 10956 10964 10968 10973 10976 10979 10980 10981 10979 10977 10972 10969 10964 10961 10961 10962 10964 10966 10961 10958 10958 10956 10954 10952 10948 10945 10942 10940 10940 10938 10936 10934 10933 10932 10931 10930 10929 10927 10925 10924 10924 10924 10924
10942 10943 10950 10957 10963 10965 10968 10969 10970 10971 10971 10965 10961 10960 10957 10951 10951 10952 10955 10954 10950 10950 10949 10947 10946 10943 10939 10936 10934 10932 10930 10928 10927 10926 10924 10922 10920 10919 10918 10916 10913 10911 10910 10910
10930 10929 10932 10948 10952 10951 10954 10958 10959 10961 10958 10955 10952 10951 10946 10944 10939 10941 10941 10943 10942 10941 10941 10940 10937 10933 10932 10931 10929 10926 10922 10917 10915 10913 10912 10911 10909 10908 10907 10905 10903 10901 10899 10898
10913 10913 10922 10939 10930 10938 10943 10946 10947 10950 10946 10943 10942 10941 10938 10934 10928 10929 10930 10929 10930 10930 10929 10929 10928 10926 10922 10918 10915 10912 10910 10906 10903 10902 10901 10899 10897 10895 10894 10893 10891 10889 10887 10887
10896 10902 10913 10918 10919 10922 10928 10932 10934 10935 10932 10932 10930 10930 10929 10924 10917 10917 10919 10919 10916 10916 10917 10916 10915 10915 10913 10909 10905 10902 10899 10895 10893 10890 10887 10884 10881 10879 10877 10875 10873 10872 10871 10871
10878 10885 10899 10907 10902 10904 10911 10925 10918 10915 10920 10920 10919 10923 10918 10910 10907 10907 10904 10905 10902 10900 10903 10902 10900 10901 10899 10897 10894 10890 10887 10882 10879 10877 10877 10874 10871 10869 10866 10864 10861 10857 10856 10855
10857 10866 10884 10892 10890 10892 10896 10909 10899 10903 10904 10906 10906 10908 10903 10902 10897 10895 10895 10895 10894 10893 10890 10889 10888 10886 10884 10880 10879 10878 10876 10872 10869 10866 10860 10856 10853 10851 10850 10847 10845 10844 10842 10839
10843 10850 10869 10874 10872 10875 10882 10886 10888 10889 10889 10889 10891 10893 10892 10888 10887 10884 10882 10882 10881 10881 10879 10877 10874 10872 10870 10868 10868 10865 10862 10861 10858 10855 10849 10845 10841 10837 10834 10831 10828 10827 10825 10823
10826 10838 10850 10854 10855 10858 10864 10871 10871 10876 10875 10874 10875 10876 10877 10876 10872 10870 10869 10870 10869 10867 10863 10860 10856 10852 10851 10851 10851 10850 10847 10846 10843 10840 10836 10831 10829 10824 10821 10818 10815 10811 10808 10806
10810 10819 10829 10835 10838 10842 10848 10853 10854 10855 10858 10858 10859 10859 10861 10861 10859 10857 10856 10855 10851 10848 10844 10841 10838 10834 10832 10832 10829 10827 10822 10821 10820 10818 10816 10813 10811 10808 10803 10799 10797 10794 10792 10789
10793 10804 10812 10818 10824 10827 10832 10837 10840 10838 10837 10841 10844 10844 10845 10844 10841 10839 10837 10835 10832 10829 10825 10822 10818 10813 10811 10809 10806 10803 10800 10799 10798 10796 10792 10792 10790 10789 10786 10782 10781 10778 10774 10773
10782 10790 10798 10804 10808 10813 10819 10820 10821 10823 10826 10824 10821 10822 10824 10823 10822 10818 10815 10813 10811 10808 10801 10797 10795 10791 10787 10785 10782 10780 10778 10775 10775 10773 10770 10768 10766 10762 10760 10760 10758 10757 10755 10753
10770 10776 10781 10787 10791 10797 10799 10800 10802 10803 10804 10807 10807 10806 10804 10802 10799 10799 10793 10792 10787 10789 10785 10780 10775 10773 10768 10764 10761 10759 10755 10751 10748 10744 10742 10740 10737 10737 10735 10729 10730 10729 10726 10725
10756 10761 10765 10769 10773 10777 10779 10782 10784 10785 10785 10787 10787 10789 10787 10785 10782 10783 10773 10770 10769 10763 10759 10754 10746 10741 10741 10737 10732 10730 10726 10723 10719 10714 10710 10707 10705 10702 10701 10702 10701 10696 10694 10697
10739 10745 10750 10753 10757 10760 10763 10765 10766 10767 10767 10767 10766 10766 10764 10762 10760 10757 10753 10749 10744 10738 10734 10729 10723 10717 10716 10712 10708 10704 10699 10693 10688 10685 10680 10678 10675 10674 10672 10671 10671 10671 10669 10662
10725 10731 10735 10738 10743 10746 10748 10748 10748 10748 10747 10747 10746 10744 10743 10741 10739 10736 10732 10728 10723 10718 10712 10707 10701 10696 10692 10688 10684 10679 10674 10668 10664 10659 10654 10649 10648 10648 10645 10643 10644 10643 10642 10641
10713 10716 10719 10721 10724 10726 10727 10729 10730 10731 10730 10729 10727 10725 10723 10721 10718 10714 10711 10705 10700 10696 10691 10687 10681 10676 10670 10665 10661 10656 10650 10645 10639 10634 10629 10626 10625 10624 10622 10622 10620 10618 10615 10616
10695 10699 10700 10701 10704 10707 10708 10711 10714 10714 10714 10713 10710 10708 10705 10702 10698 10695 10691 10686 10681 10675 10670 10664 10658 10653 10648 10643 10638 10633 10628 10622 10618 10615 10613 10612 10609 10606 10604 10603 10602 10602 10601 10599
10680 10684 10687 10689 10691 10692 10694 10695 10696 10696 10696 10695 10694 10692 10688 10685 10681 10677 10673 10669 10663 10657 10653 10648 10642 10638 10633 10628 10624 10620 10615 10609 10605 10604 10602 10598 10596 10595 10594 10595 10594 10594 10594 10594
10671 10673 10676 10678 10681 10683 10682 10683 10683 10682 10681 10681 10679 10676 10674 10670 10668 10664 10660 10655 10649 10645 10639 10634 10630 10627 10623 10619 10614 10610 10605 10600 10598 10597 10594 10593 10592 10591 10591 10590 10589 10589 10589 10589
10661 10662 10664 10666 10667 10668 10668 10668 10667 10668 10669 10667 10666 10665 10663 10660 10657 10653 10648 10643 10638 10633 10628 10623 10618 10614 10611 10606 10603 10600 10596 10594 10594 10592 10590 10589 10589 10587 10586 10585 10585 10585 10585 10584
10651 10652 10653 10654 10654 10656 10657 10658 10659 10659 10660 10659 10657 10656 10653 10650 10646 10642 10637 10632 10628 10622 10616 10610 10604 10600 10595 10592 10589 10586 10586 10587 10586 10585 10585 10584 10583 10582 10581 10582 10582 10582 10581 10580
10641 10640 10641 10643 10646 10649 10651 10653 10653 10652 10651 10650 10648 10646 10644 10640 10636 10632 10627 10622 10615 10608 10601 10591 10585 10581 10578 10576 10574 10574 10574 10575 10576 10577 10578 10578 10578 10578 10579 10579 10578 10578 10577 10575
10635 10637 10639 10642 10645 10646 10648 10648 10647 10646 10645 10642 10640 10637 10634 10630 10627 10623 10618 10610 10603 10595 10583 10572 10567 10564 10563 10562 10562 10563 10564 10566 10568 10570 10572 10573 10573 10575 10575 10575 10575 10573 10572 10570
10636 10637 10639 10640 10640 10640 10640 10640 10639 10637 10634 10632 10629 10625 10622 10619 10617 10614 10608 10600 10591 10580 10570 10562 10558 10556 10555 10556 10557 10558 10559 10560 10562 10564 10566 10568 10570 10571 10571 10571 10571 10570 10568 10566
10631 10633 10634 10635 10636 10635 10634 10631 10628 10626 10622 10619 10616 10613 10611 10610 10607 10605 10600 10591 10584 10579 10572 10566 10561 10558 10557 10558 10559 10558 10558 10558 10560 10561 10563 10565 10566 10566 10566 10566 10567 10565 10564 10562
10629 10630 10630 10629 10628 10625 10623 10620 10618 10615 10611 10608 10605 10601 10599 10598 10597 10595 10591 10586 10580 10579 10573 10569 10566 10564 10563 10563 10563 10562 10560 10560 10561 10562 10562 10562 10563 10563 10563 10562 10562 10560 10559 10558